Weather History for Gillette, WY

Change the Weather History Date:

Friday, December 7, 2012

  Actual Average Record
Temperature  
Mean Temperature 23 °F 24 °F  
Max Temperature 32 °F 35 °F 56 °F (1939)
Min Temperature 14 °F 14 °F -27 °F (1972)
Degree Days  
Heating Degree Days 42 41  
Month to date heating degree days 188 279  
Since 1 July heating degree days 1804 2154  
Cooling Degree Days 0 0  
Month to date cooling degree days 0 0  
Year to date cooling degree days 795 502  
Moisture  
Dew Point 23 °F    
Average Humidity 84    
Maximum Humidity 100    
Minimum Humidity 68    
Precipitation  
Precipitation 0.10 in 0.01 in 0.21 in (1963)
Month to date precipitation 0.13 0.13  
Year to date precipitation 9.14 13.62  
Sea Level Pressure  
Sea Level Pressure 29.88 in    
Wind  
Wind Speed 8 mph (WNW)    
Max Wind Speed 16 mph    
Max Gust Speed 21 mph    
Visibility 7 miles    
Events Snow    
T = Trace of Precipitation, MM = Missing Value Source: NWS Daily Summary

Daily Weather History Graph

Daily Weather History Graph

Search for Another Location

Airport:

Trip Planner

Search our weather history database for the weather conditions in past years. The results will help you decide how hot, cold, wet, or windy it might be!

Date:

Astronomy

Dec. 07, 2012 Rise Set
Actual Time 7:24 AM MST 4:22 PM MST
Civil Twilight 6:51 AM MST 4:55 PM MST
Nautical Twilight 6:15 AM MST 5:32 PM MST
Astronomical Twilight 5:40 AM MST 6:07 PM MST
Moon 12:34 AM MST (12/7) 12:32 PM MST (12/7)
Length of Visible Light 10h 04m
Length of Day
8h 58m
Last Quarter, 38% of the Moon is Illuminated
Dec 7
Last Quarter
Dec 13
New
Dec 19
First Quarter
Dec 28
Full
Jan 4
Last Quarter

Hourly Weather History & Observations

Time (MST) Temp. Windchill Dew Point Humidity Pressure Visibility Wind Dir Wind Speed Gust Speed Precip Events Conditions
12:00 AM 26.6 °F 18.2 °F 26.6 °F 100% 29.82 in 7.0 mi North 8.1 mph - N/A   Overcast
12:08 AM 26.6 °F 17.5 °F 26.6 °F 100% 29.82 in 8.0 mi NNE 9.2 mph - N/A   Overcast
12:30 AM 26.6 °F 20.0 °F 26.6 °F 100% 29.82 in 1.8 mi North 5.8 mph - 0.00 in Snow Light Snow
12:53 AM 27.0 °F 20.5 °F 26.1 °F 96% 29.89 in 1.2 mi North 5.8 mph - 0.03 in Snow Light Snow
1:06 AM 26.6 °F 20.0 °F 26.6 °F 100% 29.82 in 1.0 mi North 5.8 mph - 0.01 in Snow Light Snow
1:41 AM 26.6 °F 20.0 °F 26.6 °F 100% 29.82 in 1.8 mi NNW 5.8 mph - 0.04 in Snow Light Snow
1:51 AM 26.6 °F 20.0 °F 26.6 °F 100% 29.83 in 2.0 mi NNW 5.8 mph - 0.04 in Snow Light Snow
1:53 AM 27.0 °F 21.6 °F 26.1 °F 96% 29.89 in 2.0 mi NNW 4.6 mph - 0.04 in Snow Light Snow
2:02 AM 26.6 °F 21.2 °F 26.6 °F 100% 29.82 in 3.0 mi NNW 4.6 mph - 0.00 in Snow Light Snow
2:28 AM 26.6 °F 19.1 °F 26.6 °F 100% 29.84 in 3.0 mi WNW 6.9 mph - 0.00 in Snow Light Snow
2:36 AM 26.6 °F 18.2 °F 26.6 °F 100% 29.83 in 2.0 mi NW 8.1 mph - 0.00 in Snow Light Snow
2:53 AM 27.0 °F 19.5 °F 26.1 °F 96% 29.90 in 2.0 mi NW 6.9 mph - 0.01 in Snow Light Snow
3:04 AM 26.6 °F 19.1 °F 26.6 °F 100% 29.83 in 1.8 mi NW 6.9 mph - 0.00 in Snow Light Snow
3:27 AM 26.6 °F 20.0 °F 26.6 °F 100% 29.83 in 1.8 mi WNW 5.8 mph - 0.01 in Snow Light Snow
3:34 AM 26.6 °F 19.1 °F 26.6 °F 100% 29.83 in 2.5 mi WNW 6.9 mph - 0.01 in Snow Light Snow
3:41 AM 26.6 °F 18.2 °F 24.8 °F 93% 29.83 in 4.0 mi NW 8.1 mph - 0.01 in Snow Light Snow
3:53 AM 25.0 °F 18.1 °F 25.0 °F 100% 29.90 in 4.0 mi NW 5.8 mph - 0.01 in Snow Light Snow
4:22 AM 26.6 °F 17.5 °F 24.8 °F 93% 29.84 in 6.0 mi WNW 9.2 mph - 0.01 in   Overcast
4:33 AM 26.6 °F 16.8 °F 24.8 °F 93% 29.84 in 1.8 mi NW 10.4 mph - 0.01 in Snow Light Snow
4:41 AM 26.6 °F 17.5 °F 26.6 °F 100% 29.84 in 3.0 mi NW 9.2 mph - 0.01 in Snow Light Snow
4:53 AM 27.0 °F 18.0 °F 25.0 °F 92% 29.92 in 8.0 mi NW 9.2 mph - 0.01 in   Overcast
5:21 AM 26.6 °F 18.2 °F 24.8 °F 93% 29.84 in 10.0 mi WNW 8.1 mph - N/A   Overcast
5:40 AM 26.6 °F 17.5 °F 24.8 °F 93% 29.84 in 10.0 mi WNW 9.2 mph - N/A   Overcast
5:53 AM 26.1 °F 17.6 °F 25.0 °F 96% 29.93 in 10.0 mi WNW 8.1 mph - N/A   Overcast
6:07 AM 26.6 °F 16.2 °F 24.8 °F 93% 29.85 in 10.0 mi WNW 11.5 mph - N/A   Overcast
6:16 AM 26.6 °F 16.2 °F 24.8 °F 93% 29.85 in 10.0 mi NW 11.5 mph - N/A   Overcast
6:50 AM 26.6 °F 16.8 °F 24.8 °F 93% 29.86 in 10.0 mi NW 10.4 mph - N/A   Overcast
6:53 AM 27.0 °F 17.3 °F 24.1 °F 89% 29.94 in 10.0 mi NW 10.4 mph - N/A   Overcast
7:30 AM 21.2 °F 12.6 °F 19.4 °F 93% 29.85 in 10.0 mi WNW 6.9 mph - N/A   Scattered Clouds
7:53 AM 21.0 °F 10.6 °F 19.9 °F 96% 29.97 in 10.0 mi West 9.2 mph - N/A   Mostly Cloudy
8:53 AM 21.0 °F 10.6 °F 19.0 °F 92% 29.99 in 10.0 mi West 9.2 mph - N/A   Clear
9:19 AM 23.0 °F 11.1 °F 21.2 °F 93% 29.88 in 9.0 mi WSW 12.7 mph - N/A   Partly Cloudy
9:53 AM 26.1 °F 16.2 °F 24.1 °F 92% 29.99 in 10.0 mi West 10.4 mph - N/A   Clear
10:53 AM 30.0 °F 20.5 °F 24.1 °F 79% 29.98 in 10.0 mi West 11.5 mph - N/A   Mostly Cloudy
11:53 AM 30.0 °F 20.0 °F 25.0 °F 82% 29.97 in 3.0 mi West 12.7 mph - 0.00 in Snow Light Snow
12:17 PM 30.2 °F 21.3 °F 24.8 °F 80% 29.88 in 10.0 mi WNW 10.4 mph - 0.00 in   Overcast
12:53 PM 28.9 °F 21.1 °F 24.1 °F 82% 29.96 in 10.0 mi West 8.1 mph - 0.00 in   Clear
1:53 PM 30.9 °F 22.8 °F 25.0 °F 79% 29.94 in 10.0 mi West 9.2 mph - N/A   Scattered Clouds
2:53 PM 30.0 °F 21.7 °F 24.1 °F 79% 29.94 in 10.0 mi WSW 9.2 mph - N/A   Clear
3:53 PM 26.1 °F - 21.0 °F 81% 29.96 in 10.0 mi Calm Calm - N/A   Clear
4:53 PM 19.0 °F 13.9 °F 15.1 °F 85% 29.98 in 10.0 mi SSW 3.5 mph - N/A   Clear
5:53 PM 21.0 °F - 17.1 °F 85% 29.97 in 10.0 mi Calm Calm - N/A   Clear
6:53 PM 19.0 °F 13.9 °F 15.1 °F 85% 29.97 in 10.0 mi Variable 3.5 mph - N/A   Clear
7:53 PM 21.0 °F - 17.1 °F 85% 29.95 in 10.0 mi Calm Calm - N/A   Clear
8:53 PM 21.0 °F 9.3 °F 15.1 °F 78% 29.91 in 10.0 mi South 11.5 mph - N/A   Clear
9:53 PM 21.0 °F 8.6 °F 12.9 °F 71% 29.88 in 10.0 mi South 12.7 mph - N/A   Clear
10:53 PM 23.0 °F 10.6 °F 14.0 °F 68% 29.83 in 10.0 mi SSE 13.8 mph - N/A   Clear
11:53 PM 23.0 °F 10.1 °F 15.1 °F 72% 29.79 in 10.0 mi South 15.0 mph - N/A   Clear